When you browse on this site, cookies collect data to enhance your experience and personalize the content and advertising you see.
Visit our Privacy Policy to learn more. By continuing to use the site, you agree to this use of cookies and data.
  • In Lithuania
  • List of Countries
  • For 7 days
  • Water Temperature
  • Satellite Maps
  • Weather Map
  • Weather Widgets
  • user-avatar
    Login

    Hourly Weather San Carlos

    Today, 20 January, Sunday

    Time Temperature Precipitation Wind Pressure Humidity
    00:00 +25°C° 0 mm 1 mps 745 mmHg 78%
    01:00 +25°C° 0 mm 1 mps 745 mmHg 80%
    02:00 +25°C° 0 mm 1 mps 745 mmHg 82%
    03:00 +24°C° 0 mm 1 mps 745 mmHg 83%
    04:00 +24°C° 0 mm 1 mps 745 mmHg 84%
    05:00 +22°C° 0 mm 0 mps 746 mmHg 81%
    06:00 +23°C° 0 mm 0 mps 746 mmHg 79%
    07:00 +23°C° 0 mm 0 mps 747 mmHg 76%
    08:00 +28°C° 0 mm 1 mps 747 mmHg 65%
    09:00 +30°C° 0 mm 2 mps 747 mmHg 55%
    10:00 +34°C° 0 mm 3 mps 747 mmHg 44%
    11:00 +35°C° 0 mm 2 mps 747 mmHg 40%
    12:00 +36°C° 0 mm 2 mps 746 mmHg 36%
    13:00 +37°C° 0 mm 2 mps 745 mmHg 32%
    14:00 +37°C° 0 mm 2 mps 744 mmHg 32%
    15:00 +37°C° 0 mm 2 mps 744 mmHg 32%
    16:00 +37°C° 0 mm 2 mps 743 mmHg 32%
    17:00 +35°C° 0 mm 2 mps 743 mmHg 37%
    18:00 +32°C° 0 mm 1 mps 744 mmHg 42%
    19:00 +29°C° 0 mm 1 mps 744 mmHg 47%
    20:00 +29°C° 0 mm 1 mps 744 mmHg 52%
    21:00 +28°C° 0 mm 1 mps 745 mmHg 58%
    22:00 +27°C° 0 mm 2 mps 745 mmHg 64%
    23:00 +26°C° 0 mm 2 mps 745 mmHg 68%

    Tomorrow, 21 January, Monday

    Time Temperature Precipitation Wind Pressure Humidity
    00:00 +26°C° 0 mm 1 mps 745 mmHg 72%
    01:00 +25°C° 0 mm 1 mps 745 mmHg 76%
    02:00 +25°C° 0 mm 1 mps 745 mmHg 77%
    03:00 +25°C° 0 mm 1 mps 745 mmHg 79%
    04:00 +25°C° 0 mm 1 mps 745 mmHg 80%
    05:00 +25°C° 0 mm 1 mps 746 mmHg 78%
    06:00 +26°C° 0 mm 1 mps 746 mmHg 77%
    07:00 +26°C° 0 mm 1 mps 747 mmHg 75%
    08:00 +29°C° 0 mm 1 mps 747 mmHg 65%
    09:00 +31°C° 0 mm 2 mps 748 mmHg 54%
    10:00 +35°C° 0 mm 2 mps 748 mmHg 44%
    11:00 +36°C° 0 mm 2 mps 747 mmHg 40%
    12:00 +37°C° 0 mm 2 mps 746 mmHg 37%
    13:00 +37°C° 0 mm 1 mps 745 mmHg 34%
    14:00 +37°C° 0 mm 2 mps 745 mmHg 35%
    15:00 +37°C° 0 mm 2 mps 744 mmHg 36%
    16:00 +37°C° 0 mm 2 mps 744 mmHg 37%
    17:00 +35°C° 0 mm 2 mps 744 mmHg 44%
    18:00 +32°C° 0 mm 2 mps 745 mmHg 52%
    19:00 +30°C° 0 mm 3 mps 745 mmHg 60%
    20:00 +29°C° 0 mm 3 mps 746 mmHg 64%
    21:00 +28°C° 0 mm 3 mps 746 mmHg 67%
    22:00 +28°C° 0 mm 2 mps 747 mmHg 71%
    23:00 +27°C° 0 mm 2 mps 746 mmHg 72%

    Day after tomorrow, 22 January, Tuesday

    Time Temperature Precipitation Wind Pressure Humidity
    00:00 +27°C° 0 mm 2 mps 746 mmHg 73%
    01:00 +26°C° 0 mm 2 mps 746 mmHg 73%
    02:00 +26°C° 0 mm 2 mps 746 mmHg 74%
    03:00 +25°C° 0 mm 1 mps 745 mmHg 75%
    04:00 +25°C° 0 mm 1 mps 745 mmHg 76%
    05:00 +25°C° 0 mm 1 mps 746 mmHg 75%
    06:00 +25°C° 0 mm 1 mps 747 mmHg 73%
    07:00 +26°C° 0 mm 1 mps 747 mmHg 72%
    08:00 +28°C° 0 mm 1 mps 748 mmHg 62%
    09:00 +31°C° 0 mm 2 mps 748 mmHg 52%
    10:00 +35°C° 0 mm 2 mps 748 mmHg 42%
    11:00 +35°C° 0 mm 2 mps 747 mmHg 40%
    12:00 +36°C° 0 mm 2 mps 746 mmHg 38%
    13:00 +37°C° 0 mm 2 mps 745 mmHg 36%
    14:00 +36°C° 0 mm 2 mps 745 mmHg 36%
    15:00 +36°C° 0 mm 2 mps 744 mmHg 37%
    16:00 +35°C° 0 mm 1 mps 744 mmHg 38%
    17:00 +34°C° 0 mm 2 mps 744 mmHg 46%
    18:00 +31°C° 0 mm 2 mps 745 mmHg 54%
    19:00 +29°C° 0 mm 2 mps 745 mmHg 62%
    20:00 +28°C° 0 mm 2 mps 746 mmHg 66%
    21:00 +27°C° 0 mm 2 mps 746 mmHg 70%
    22:00 +27°C° 0 mm 2 mps 747 mmHg 74%
    23:00 +26°C° 0 mm 2 mps 747 mmHg 75%

    23 January, Wednesday

    Time Temperature Precipitation Wind Pressure Humidity
    00:00 +26°C° 0 mm 2 mps 746 mmHg 77%
    01:00 +25°C° 0 mm 1 mps 746 mmHg 78%
    02:00 +25°C° 0 mm 1 mps 746 mmHg 80%
    03:00 +24°C° 0 mm 1 mps 746 mmHg 82%
    04:00 +24°C° 0 mm 1 mps 746 mmHg 83%
    05:00 +25°C° 0 mm 1 mps 747 mmHg 81%
    06:00 +25°C° 0 mm 1 mps 747 mmHg 79%
    07:00 +26°C° 0 mm 1 mps 748 mmHg 76%
    08:00 +28°C° 0 mm 1 mps 748 mmHg 64%
    09:00 +31°C° 0 mm 2 mps 748 mmHg 52%
    10:00 +34°C° 0 mm 2 mps 748 mmHg 40%
    11:00 +35°C° 0 mm 2 mps 747 mmHg 36%
    12:00 +36°C° 0 mm 2 mps 746 mmHg 33%
    13:00 +37°C° 0 mm 2 mps 745 mmHg 29%
    14:00 +37°C° 0 mm 2 mps 745 mmHg 29%
    15:00 +37°C° 0 mm 2 mps 744 mmHg 29%
    16:00 +37°C° 0 mm 2 mps 743 mmHg 29%
    17:00 +34°C° 0 mm 2 mps 744 mmHg 37%
    18:00 +31°C° 0 mm 2 mps 744 mmHg 44%
    19:00 +29°C° 0 mm 1 mps 745 mmHg 52%
    20:00 +28°C° 0 mm 2 mps 745 mmHg 59%
    21:00 +27°C° 0 mm 2 mps 745 mmHg 66%
    22:00 +27°C° 0 mm 2 mps 746 mmHg 73%
    23:00 +26°C° 0 mm 2 mps 746 mmHg 75%

    24 January, Thursday

    Time Temperature Precipitation Wind Pressure Humidity
    00:00 +26°C° 0 mm 1 mps 746 mmHg 77%
    01:00 +25°C° 0 mm 1 mps 745 mmHg 79%
    02:00 +25°C° 0 mm 1 mps 745 mmHg 80%
    03:00 +24°C° 0 mm 1 mps 745 mmHg 81%
    04:00 +24°C° 0 mm 1 mps 745 mmHg 82%
    05:00 +24°C° 0 mm 1 mps 746 mmHg 80%
    06:00 +23°C° 0 mm 0 mps 746 mmHg 78%
    07:00 +23°C° 0 mm 0 mps 747 mmHg 76%
    08:00 +27°C° 0 mm 1 mps 747 mmHg 66%
    09:00 +30°C° 0 mm 2 mps 747 mmHg 56%
    10:00 +33°C° 0 mm 3 mps 747 mmHg 46%
    11:00 +34°C° 0 mm 3 mps 747 mmHg 42%
    12:00 +35°C° 0 mm 2 mps 746 mmHg 38%
    13:00 +37°C° 0 mm 2 mps 745 mmHg 34%
    14:00 +37°C° 0 mm 2 mps 744 mmHg 33%
    15:00 +36°C° 0 mm 2 mps 744 mmHg 33%
    16:00 +36°C° 0 mm 2 mps 743 mmHg 32%
    17:00 +33°C° 0 mm 1 mps 743 mmHg 39%
    18:00 +31°C° 0 mm 1 mps 744 mmHg 45%
    19:00 +29°C° 0 mm 1 mps 744 mmHg 51%
    20:00 +28°C° 0 mm 1 mps 745 mmHg 57%
    21:00 +28°C° 0 mm 2 mps 745 mmHg 64%
    22:00 +27°C° 0 mm 2 mps 745 mmHg 71%
    23:00 +26°C° 0 mm 2 mps 745 mmHg 73%

    25 January, Friday

    Time Temperature Precipitation Wind Pressure Humidity
    00:00 +26°C° 0 mm 1 mps 745 mmHg 76%
    01:00 +25°C° 0 mm 1 mps 745 mmHg 79%
    02:00 +25°C° 0 mm 1 mps 745 mmHg 79%
    03:00 +25°C° 0 mm 1 mps 745 mmHg 80%
    04:00 +25°C° 0 mm 1 mps 745 mmHg 81%
    05:00 +25°C° 0 mm 1 mps 746 mmHg 79%
    06:00 +25°C° 0 mm 1 mps 746 mmHg 77%
    07:00 +26°C° 0 mm 1 mps 747 mmHg 76%
    08:00 +28°C° 0 mm 1 mps 747 mmHg 64%
    09:00 +31°C° 0 mm 2 mps 747 mmHg 52%
    10:00 +34°C° 0 mm 2 mps 748 mmHg 41%
    11:00 +35°C° 0 mm 2 mps 746 mmHg 37%
    12:00 +37°C° 0 mm 2 mps 745 mmHg 34%
    13:00 +38°C° 0 mm 2 mps 744 mmHg 30%
    14:00 +37°C° 0 mm 1 mps 744 mmHg 31%
    15:00 +37°C° 0 mm 1 mps 743 mmHg 31%
    16:00 +36°C° 0 mm 1 mps 743 mmHg 32%
    17:00 +35°C° 0 mm 2 mps 743 mmHg 39%
    18:00 +32°C° 0 mm 2 mps 744 mmHg 47%
    19:00 +30°C° 0 mm 2 mps 744 mmHg 55%
    20:00 +29°C° 0 mm 2 mps 744 mmHg 60%
    21:00 +28°C° 0 mm 2 mps 745 mmHg 65%
    22:00 +27°C° 0 mm 2 mps 745 mmHg 70%
    23:00 +26°C° 0 mm 2 mps 745 mmHg 71%
    Show more